Regional Weather Roundup
Issued by NWS

Home | Current Version | Previous Version | Graphics & Text | Print | Product List | Glossary On
Versions: 1 2 3 4 5 6 7 8 9 10 11 12 13 14 15 16 17 18 19 20 21 22 23 24 25 26 27 28 29 30 31 32 33 34 35 36 37 38 39 40 41 42 43 44 45 46 47 48 49 50
000
ASUS44 KMEG 220410
RWRTN
TENNESSEE HOURLY STATE WEATHER ROUNDUP
NATIONAL WEATHER SERVICE MEMPHIS TN
1000 PM CST TUE NOV 21 2017

TNZ002-004-019-021-049-052-054-088>092-220500-
WEST TENNESSEE

CITY           SKY/WX    TMP DP  RH WIND       PRES   REMARKS
MEMPHIS INTL   PTCLDY    46  40  79 CALM      30.12R
NWS MEMPHIS      N/A     42 N/A N/A MISG        N/A
JACKSON        CLEAR     39  37  92 CALM      30.13R
DYERSBURG      CLEAR     48  38  68 N15       30.15R
SOMERVILLE     CLEAR     41  37  87 CALM      30.11R
COVINGTON      CLEAR     39  36  87 N5        30.14R
UNION CITY     CLEAR     45  39  81 N13       30.15R
BOLIVAR        CLEAR     39  36  87 CALM      30.11R
PARIS          PTCLDY    46  37  71 N9G16     30.13R
HUNTINGDON     PTCLDY    39  36  87 CALM      30.12R
LEXINGTON      PTCLDY    39  36  87 CALM      30.11S
SELMER         MOCLDY    39  37  93 CALM      30.11R
SAVANNAH       CLOUDY    37  37 100 CALM      30.11R
$$

TNZ008-025-027-028-033-062-065-066-220500-
NORTH MIDDLE TENNESSEE

CITY           SKY/WX    TMP DP  RH WIND       PRES   REMARKS
NASHVILLE      CLOUDY    43  32  65 CALM      30.11R
PORTLAND       CLEAR     46  32  57 CALM      30.09S
CLARKSVILLE    PTCLDY    43  33  68 NW9       30.12R
SMYRNA         PTCLDY    40  35  83 CALM      30.12R
COOKEVILLE     PTCLDY    36  34  93 CALM      30.08R
GALLATIN       PTCLDY    41  32  70 CALM      30.12S
CROSSVILLE     CLOUDY    47  33  58 W5        30.08S
$$

TNZ061-075-076-078-094-096-097-220500-
SOUTH MIDDLE TENNESSEE

CITY           SKY/WX    TMP DP  RH WIND       PRES   REMARKS
FAYETTEVILLE   MOCLDY    45  34  65 CALM      30.09R
TULLAHOMA      MOCLDY    45  30  57 CALM      30.08S
WINCHESTER     MOCLDY    41  37  87 CALM      30.10S
MCMINNVILLE    CLEAR     41  36  81 CALM      30.08S
COLUMBIA       PTCLDY    39  36  87 CALM      30.09R
SHELBYVILLE    PTCLDY    37  34  87 CALM      30.10R
$$

TNZ017-018-042-046-047-220500-
NORTHEAST TENNESSEE

CITY           SKY/WX    TMP DP  RH WIND       PRES   REMARKS
TRI CITIES     MOCLDY    45  43  93 CALM      30.03S
ELIZABETHTON   PTCLDY    41  41 100 CALM      30.04F
$$

TNZ012-013-036-069-073-074-220500-
CENTRAL EAST TENNESSEE

CITY           SKY/WX    TMP DP  RH WIND       PRES   REMARKS
KNOXVILLE      MOCLDY    49  48  97 S3        30.04S
OAK RIDGE      PTCLDY    49  47  93 SW3       30.05R
DOWNTOWN KNOXV CLOUDY    46  46 100 CALM      30.05S
GATLINBURG     CLOUDY    45  43  93 CALM      30.05R
MORRISTOWN     CLOUDY    50  45  81 SW5       30.03S
JACKSBORO      CLOUDY    55  36  47 W9G18     30.08S
$$

TNZ083-085-099-220500-
SOUTHEAST TENNESSEE

CITY           SKY/WX    TMP DP  RH WIND       PRES   REMARKS
CHATTANOOGA    MOCLDY    49  47  93 CALM      30.06R
DAYTON         CLOUDY    55  43  62 NW7       30.06R
$$

SKY/WX REPORTED AS FAIR MEANS FEW OR NO CLOUDS BELOW
12 THOUSAND FEET.





USA.gov is the U.S. government's official web portal to all federal, state and local government web resources and services.